This is the latest recevied weather packets stored in our database for station/object W5ALL-WX. If no packets are shown the sender has not sent any weather packets the latest 10 day(s).
| Time | Temp. | Humidity | Pressure | Rain* | Wind** | Luminosity | Snow |
|---|---|---|---|---|---|---|---|
| 1777689601 | 15° C | 58% | 1017.3 hPa | 0 mm | - | - | - |
| 1777689301 | 15° C | 58% | 1017.1 hPa | 0 mm | - | - | - |
| 1777689001 | 15° C | 58% | 1016.9 hPa | 0 mm | - | - | - |
| 1777688701 | 15° C | 58% | 1016.9 hPa | 0 mm | - | - | - |
| 1777688401 | 15.56° C | 57% | 1016.8 hPa | 0 mm | - | - | - |
| 1777688101 | 15.56° C | 59% | 1016.7 hPa | 0 mm | - | - | - |
| 1777687801 | 15.56° C | 63% | 1016.7 hPa | 0 mm | - | - | - |
| 1777687501 | 15.56° C | 62% | 1016.7 hPa | 0 mm | - | - | - |
| 1777687201 | 15.56° C | 62% | 1016.6 hPa | 0 mm | - | - | - |
| 1777686901 | 15.56° C | 60% | 1016.6 hPa | 0 mm | - | - | - |
| 1777686601 | 15.56° C | 59% | 1016.4 hPa | 0 mm | - | - | - |
| 1777686301 | 15.56° C | 60% | 1016.3 hPa | 0 mm | - | - | - |
| 1777686001 | 15.56° C | 56% | 1016.2 hPa | 0 mm | - | - | - |
| 1777685701 | 15.56° C | 57% | 1016.1 hPa | 0 mm | - | - | - |
| 1777685401 | 16.11° C | 56% | 1016 hPa | 0 mm | - | - | - |
| 1777685101 | 16.11° C | 55% | 1016 hPa | 0 mm | - | - | - |
| 1777684801 | 16.11° C | 56% | 1015.7 hPa | 0 mm | - | - | - |
| 1777684501 | 16.11° C | 55% | 1015.7 hPa | 0 mm | - | - | - |
| 1777684201 | 16.11° C | 57% | 1015.6 hPa | 0 mm | - | - | - |
| 1777683901 | 16.11° C | 56% | 1015.6 hPa | 0 mm | - | - | - |
| 1777683601 | 16.11° C | 55% | 1015.6 hPa | 0 mm | - | - | - |
| 1777683301 | 16.11° C | 57% | 1015.6 hPa | 0 mm | - | - | - |
| 1777683001 | 15.56° C | 57% | 1015.5 hPa | 0 mm | - | - | - |
| 1777682701 | 16.11° C | 57% | 1015.5 hPa | 0 mm | - | - | - |
| 1777682401 | 16.11° C | 59% | 1015.4 hPa | 0 mm | - | - | - |
* Rain latest hour (hover to see other rain measurements)
** Current wind speed in m/s (hover to see current wind gust speed)